Flag for Poland Weather past 2 weeks in Warsaw, Poland

Now
34 °F

Passing clouds.


Feels Like: 28 °F
Forecast: 29 / 36 °F
Wind: 7 mph from South

Location: Warsaw Okecie Airport

Current Time: Jan 28, 2015 at 7:15:43 PM

Latest Report: Jan 28, 2015 at 6:30 PM


Visibility: N/A

Pressure: 29.74 "Hg

Humidity: 81%

Dew point: 28 °F

Location of WarsawLocation

Historic Weather in Warsaw — Graph

°F

Warsaw temperature yesterday

Maximum temperature yesterday: 34 °F (at 6:00 PM)
Minimum temperature yesterday: 23 °F (at 3:30 AM)
Average temperature yesterday: 30 °F

Past Weeks' High & Low Weather Summary

 TemperatureHumidityPressure
High50 °F (Jan 13, 10:00 PM)100% (Jan 15, 8:30 AM)30.24 "Hg (Jan 15, 8:30 AM)
Low23 °F (Jan 27, 3:30 AM)46% (Jan 14, 1:30 AM)29.74 "Hg (Jan 14, 2:00 PM)
Average35 °F90%29.98 "Hg
* Reported Jan 13 6:00 PM — Jan 28 6:00 PM, Warsaw, Weather by CustomWeather, © 2014

Note: Actual official high and low records may vary slightly from our data, if they occured in-between our weather recording intervals... More about our weather records

Advertising

Warsaw weather history for previous 24 hours

 ConditionsComfort  
Time TempWeatherWind HumidityBarometerVisibility
6:00 PM
Jan 28
34 °FPassing clouds.6 mph81%29.77 "HgN/A
5:30 PM34 °FPassing clouds.6 mph75%29.77 "HgN/A
5:00 PM34 °FPassing clouds.8 mph75%29.80 "HgN/A
4:30 PM34 °FPartly cloudy.8 mph75%29.80 "HgN/A
4:00 PM34 °FPartly sunny.7 mph81%29.80 "HgN/A
3:30 PM34 °FPartly sunny.7 mph93%29.80 "HgN/A
3:00 PM34 °FPartly sunny.9 mph93%29.80 "HgN/A
2:30 PM36 °FBroken clouds.6 mph87%29.80 "HgN/A
2:00 PM36 °FBroken clouds.7 mph87%29.83 "HgN/A
1:30 PM36 °FPartly sunny.8 mph87%29.83 "HgN/A
1:00 PM34 °FPartly sunny.8 mph93%29.83 "HgN/A
12:30 PM36 °FPartly sunny.8 mph87%29.86 "HgN/A
12:00 PM36 °FBroken clouds.8 mph87%29.86 "HgN/A
11:30 AM34 °FLight rain. Partly sunny.9 mph93%29.86 "Hg4 mi
11:00 AM34 °FLight rain. Partly sunny.9 mph93%29.86 "Hg4 mi
10:30 AM34 °FLight rain. Partly sunny.9 mph93%29.86 "Hg4 mi
10:00 AM34 °FLight rain. Fog.9 mph93%29.86 "Hg3 mi
9:30 AM34 °FLight rain. Partly sunny.9 mph93%29.86 "Hg4 mi
9:00 AM34 °FLow clouds.7 mph93%29.86 "Hg4 mi
8:30 AM34 °FLow clouds.9 mph100%29.86 "Hg4 mi
8:00 AM34 °FPartly sunny.8 mph100%29.86 "Hg4 mi
7:30 AM34 °FLight rain. Partly sunny.9 mph100%29.86 "Hg4 mi
7:00 AM34 °FPassing clouds.8 mph93%29.86 "Hg6 mi
6:30 AM34 °FLight rain. Passing clouds.9 mph100%29.86 "Hg5 mi
6:00 AM34 °FLight rain. Passing clouds.8 mph100%29.86 "Hg4 mi
5:30 AM34 °FLight rain. Passing clouds.9 mph100%29.86 "Hg4 mi
5:00 AM34 °FLight rain. Passing clouds.10 mph100%29.86 "Hg4 mi
4:30 AM34 °FPassing clouds.9 mph100%29.86 "Hg5 mi
4:00 AM34 °FDrizzle. Fog.9 mph100%29.86 "Hg3 mi
3:30 AM34 °FDrizzle. Fog.9 mph100%29.86 "Hg3 mi
3:00 AM34 °FLight rain. Passing clouds.7 mph100%29.86 "Hg4 mi
2:30 AM34 °FLight rain. Fog.7 mph100%29.86 "Hg3 mi
2:00 AM34 °FLight rain. Passing clouds.8 mph100%29.86 "Hg4 mi
1:30 AM34 °FLight rain. Fog.6 mph100%29.86 "Hg3 mi
1:00 AM34 °FLight rain. Passing clouds.7 mph100%29.86 "Hg4 mi
12:30 AM34 °FDrizzle. Low clouds.6 mph100%29.86 "Hg4 mi
12:00 AM34 °FDrizzle. Low clouds.7 mph100%29.86 "Hg4 mi
11:30 PM
Jan 27
34 °FPassing clouds.7 mph100%29.86 "Hg5 mi
11:00 PM34 °FPassing clouds.8 mph100%29.86 "HgN/A
10:30 PM34 °FPassing clouds.7 mph100%29.86 "Hg6 mi
10:00 PM34 °FLight rain. Passing clouds.7 mph100%29.86 "Hg5 mi
9:30 PM34 °FLight rain. Passing clouds.8 mph100%29.86 "Hg3 mi
9:00 PM34 °FLight rain. Fog.7 mph100%29.86 "Hg2 mi
8:30 PM34 °FDrizzle. Fog.7 mph100%29.86 "Hg3 mi
8:00 PM34 °FLight rain. Fog.7 mph93%29.86 "Hg2 mi
7:30 PM34 °FFog.6 mph93%29.86 "Hg2 mi
7:00 PM34 °FFog.5 mph93%29.83 "Hg2 mi
Weather by CustomWeather, © 2014

See weather overviewHow to use our weather pages